Location: Newark
(37.3333°N, 6.0167°W)
Time: 14:34:42
(UTC+00:00)

ISS - Visible Passes

Search period start: 20 October 2019 00:00
Search period end: 30 October 2019 00:00
Orbit: 411 x 421 km, 51.6° (Epoch: 20 October)

Date Brightness Start Highest point End Pass type
(mag) Time Alt. Az. Time Alt. Az. Time Alt. Az.
23 Oct -1.3 05:33:08 10° S 05:35:48 22° SE 05:38:29 10° ENE visible
24 Oct -0.7 04:45:58 10° SSE 04:47:22 12° SE 04:48:47 10° ESE visible
25 Oct -3.6 05:32:25 15° SW 05:35:06 72° SE 05:38:28 10° NE visible
26 Oct -2.4 04:46:39 37° SE 04:46:39 37° SE 04:49:41 10° ENE visible
27 Oct -3.1 05:33:35 29° WNW 05:34:35 37° NW 05:37:46 10° NE visible
28 Oct -2.1 04:47:25 29° NE 04:47:25 29° NE 04:49:14 10° NE visible
29 Oct -2.0 05:34:00 18° NNW 05:34:15 18° NNW 05:36:39 10° NNE visible
